DUB7 KSAN-KDFW

Flight info

Callsign DUB7
Flight time N/A
Altitude 35000
Route ZZOOO4 TGOLD DCT PXR DCT KA24Q DCT ONM DCT CNX DCT KA27W DCT TXO DCT TURKI VKTRY2
Aircraft B744/H-SDE3FGHIM1M2RWXY/LB1

Departure

Time 2026-04-26 00:07
Airport San Diego International Airport (KSAN)

Arrival

Time N/A
Airport Dallas Fort Worth International Airport (KDFW)
Time Latitude Longitude Altitude Speed Heading
2026-04-25 23:49 32.73514 -117.18361 28 ft 0 kts 52°
2026-04-25 23:56 32.73503 -117.18377 28 ft 4 kts 52°
2026-04-25 23:56 32.73487 -117.18401 28 ft 4 kts 60°
2026-04-25 23:56 32.73479 -117.18419 28 ft 4 kts 108°
2026-04-25 23:56 32.73484 -117.18429 28 ft 2 kts 147°
2026-04-25 23:57 32.73506 -117.18446 28 ft 4 kts 147°
2026-04-25 23:57 32.73511 -117.18449 28 ft 0 kts 147°
2026-04-25 23:59 32.73509 -117.18448 28 ft 2 kts 146°
2026-04-26 00:00 32.73456 -117.18402 28 ft 10 kts 142°
2026-04-26 00:00 32.73444 -117.18391 28 ft 0 kts 144°
2026-04-26 00:00 32.73442 -117.18390 28 ft 2 kts 148°
2026-04-26 00:00 32.73427 -117.18386 28 ft 2 kts 184°
2026-04-26 00:01 32.73416 -117.18389 28 ft 1 kts 194°
2026-04-26 00:01 32.73414 -117.18390 28 ft 0 kts 194°
2026-04-26 00:01 32.73407 -117.18392 28 ft 6 kts 194°
2026-04-26 00:02 32.73372 -117.18402 28 ft 5 kts 194°
2026-04-26 00:02 32.73342 -117.18403 28 ft 5 kts 150°
2026-04-26 00:02 32.73328 -117.18371 28 ft 4 kts 107°
2026-04-26 00:02 32.73319 -117.18337 28 ft 4 kts 107°
2026-04-26 00:03 32.73308 -117.18292 28 ft 10 kts 106°
2026-04-26 00:03 32.73284 -117.18194 28 ft 13 kts 106°
2026-04-26 00:03 32.73260 -117.18095 28 ft 12 kts 106°
2026-04-26 00:03 32.73236 -117.18000 28 ft 12 kts 106°
2026-04-26 00:04 32.73214 -117.17909 28 ft 11 kts 106°
2026-04-26 00:04 32.73193 -117.17821 28 ft 11 kts 105°
2026-04-26 00:04 32.73174 -117.17736 28 ft 10 kts 105°
2026-04-26 00:04 32.73155 -117.17656 28 ft 10 kts 106°
2026-04-26 00:05 32.73133 -117.17581 28 ft 9 kts 124°
2026-04-26 00:05 32.73116 -117.17560 28 ft 1 kts 138°
2026-04-26 00:05 32.73108 -117.17552 28 ft 2 kts 142°
2026-04-26 00:05 32.73078 -117.17527 28 ft 13 kts 146°
2026-04-26 00:06 32.73022 -117.17504 28 ft 7 kts 179°
2026-04-26 00:06 32.73010 -117.17525 28 ft 4 kts 279°
2026-04-26 00:06 32.73033 -117.17630 28 ft 42 kts 285°
2026-04-26 00:06 32.73197 -117.18303 29 ft 127 kts 284°
2026-04-26 00:07 32.73500 -117.19553 278 ft 175 kts 286°
2026-04-26 00:07 32.73882 -117.20970 1175 ft 187 kts 286°
2026-04-26 00:07 32.74226 -117.22439 2419 ft 182 kts 284°
2026-04-26 00:07 32.74576 -117.23932 3424 ft 194 kts 284°
2026-04-26 00:08 32.74942 -117.25432 4235 ft 183 kts 285°
2026-04-26 00:08 32.75321 -117.26895 4649 ft 192 kts 286°
2026-04-26 00:08 32.75765 -117.28507 4698 ft 218 kts 287°
2026-04-26 00:08 32.76097 -117.29669 4784 ft 230 kts 288°
2026-04-26 00:09 32.76623 -117.31481 5262 ft 229 kts 287°
2026-04-26 00:09 32.76753 -117.33346 5707 ft 232 kts 258°
2026-04-26 00:09 32.76009 -117.35056 6141 ft 240 kts 229°
2026-04-26 00:09 32.74577 -117.36117 6691 ft 249 kts 200°
2026-04-26 00:10 32.72836 -117.36224 7349 ft 256 kts 174°
2026-04-26 00:10 32.71066 -117.35935 8004 ft 256 kts 184°
2026-04-26 00:10 32.69281 -117.35626 8409 ft 276 kts 162°
2026-04-26 00:10 32.67607 -117.34340 8741 ft 296 kts 139°
2026-04-26 00:11 32.66332 -117.32431 9662 ft 294 kts 124°
2026-04-26 00:11 32.65422 -117.30280 10609 ft 288 kts 119°
2026-04-26 00:11 32.64548 -117.28116 11277 ft 293 kts 119°
2026-04-26 00:11 32.63682 -117.25904 11932 ft 299 kts 116°
2026-04-26 00:12 32.63075 -117.23502 12548 ft 310 kts 106°
2026-04-26 00:12 32.62719 -117.20886 12847 ft 334 kts 100°
2026-04-26 00:12 32.62496 -117.18030 13045 ft 362 kts 98°
2026-04-26 00:12 32.62265 -117.14941 13231 ft 389 kts 98°
2026-04-26 00:13 32.62193 -117.11648 13694 ft 409 kts 86°
2026-04-26 00:13 32.62717 -117.08298 14627 ft 416 kts 78°
2026-04-26 00:13 32.63555 -117.04981 15587 ft 423 kts 71°
2026-04-26 00:13 32.64642 -117.01709 16497 ft 430 kts 68°
2026-04-26 00:14 32.65758 -116.98387 17365 ft 436 kts 72°
2026-04-26 00:14 32.66450 -116.94863 18244 ft 440 kts 82°
2026-04-26 00:14 32.66812 -116.91280 19056 ft 444 kts 88°
2026-04-26 00:14 32.66939 -116.87593 19880 ft 450 kts 92°
2026-04-26 00:15 32.66947 -116.83864 20659 ft 456 kts 92°
2026-04-26 00:15 32.67003 -116.80064 21371 ft 464 kts 91°
2026-04-26 00:15 32.67092 -116.76207 22095 ft 471 kts 91°
2026-04-26 00:15 32.67147 -116.72284 22870 ft 475 kts 93°
2026-04-26 00:16 32.67085 -116.68366 23625 ft 479 kts 95°
2026-04-26 00:16 32.66987 -116.64387 24301 ft 486 kts 95°
2026-04-26 00:16 32.66903 -116.60349 24893 ft 493 kts 95°
2026-04-26 00:16 32.66826 -116.56262 25508 ft 499 kts 95°
2026-04-26 00:17 32.66751 -116.52118 26094 ft 505 kts 95°
2026-04-26 00:17 32.66676 -116.47933 26674 ft 511 kts 95°
2026-04-26 00:17 32.66617 -116.43693 27237 ft 516 kts 93°
2026-04-26 00:17 32.66787 -116.39408 27825 ft 523 kts 89°
2026-04-26 00:18 32.67175 -116.35076 28178 ft 534 kts 86°
2026-04-26 00:18 32.67642 -116.30701 28791 ft 535 kts 87°
2026-04-26 00:18 32.68070 -116.26293 29241 ft 541 kts 88°
2026-04-26 00:18 32.68474 -116.21831 29622 ft 547 kts 88°
2026-04-26 00:19 32.68873 -116.17325 30165 ft 549 kts 88°
2026-04-26 00:19 32.69271 -116.12819 30772 ft 549 kts 88°
2026-04-26 00:19 32.69669 -116.08305 31349 ft 550 kts 88°
2026-04-26 00:19 32.70067 -116.03786 31864 ft 551 kts 88°
2026-04-26 00:20 32.70477 -115.99261 32405 ft 552 kts 88°
2026-04-26 00:20 32.70896 -115.94728 32909 ft 553 kts 88°
2026-04-26 00:20 32.71312 -115.90194 33385 ft 554 kts 88°
2026-04-26 00:20 32.71751 -115.85647 33855 ft 555 kts 88°
2026-04-26 00:21 32.72185 -115.81096 34319 ft 555 kts 88°
2026-04-26 00:21 32.72592 -115.76640 34631 ft 555 kts 89°
2026-04-26 00:21 32.73010 -115.71985 34778 ft 554 kts 89°
2026-04-26 00:22 32.73821 -115.62869 34895 ft 560 kts 89°
2026-04-26 00:22 32.74232 -115.58238 35034 ft 567 kts 88°
2026-04-26 00:22 32.74647 -115.53563 35250 ft 571 kts 88°
2026-04-26 00:22 32.74993 -115.48861 35582 ft 570 kts 91°
2026-04-26 00:23 32.75156 -115.44166 35964 ft 568 kts 94°
2026-04-26 00:23 32.75226 -115.39475 36339 ft 567 kts 94°
2026-04-26 00:23 32.75292 -115.34790 36724 ft 567 kts 94°
2026-04-26 00:23 32.75375 -115.30121 37048 ft 568 kts 94°